Regional Weather Roundup
Issued by NWS

Home | Current Version | Previous Version | Text Only | Print | Product List | Glossary On
Versions: 1 2 3 4 5 6 7 8 9 10 11 12 13 14 15 16 17 18 19 20 21 22 23 24 25 26 27 28 29 30 31 32 33 34 35 36 37 38 39 40 41 42 43 44 45 46 47 48 49 50
000
ASUS46 KSTO 280204
RWRCA

NORTHERN AND CENTRAL CA REGIONAL WEATHER ROUNDUP
NATIONAL WEATHER SERVICE SACRAMENTO CA
600 PM PST MON FEB 27 2017

NOTE: FAIR INDICATES FEW OR NO CLOUDS BELOW 12,000 FEET WITH NO
SIGNIFICANT WEATHER AND/OR OBSTRUCTIONS TO VISIBILITY.

CAZ001-003-280300-
NORTHWEST AREA

CITY           SKY/WX    TMP DP  RH WIND       PRES   REMARKS
CRESCENT CITY  CLOUDY    44  39  82 NE6       30.02R
UKIAH          CLEAR     47  34  60 CALM      29.96R
$$

CAZ006-505>513-280300-
BAY AREA

CITY           SKY/WX    TMP DP  RH WIND       PRES   REMARKS
SANTA ROSA     PTCLDY    51  38  60 W7        29.93R
SAN RAFAEL     N/A       55  MM  MM MISG
NAPA           PTCLDY    51  39  63 W12       29.95R
CONCORD        PTCLDY    53  37  54 NW9       29.95R
OAKLAND CITY   N/A      MM  MM  MM MISG
OAKLAND        PTCLDY    53  38  56 W18       29.96R
SAN FRAN CITY  N/A       50  MM  61 MISG
SAN FRAN ARPT  PTCLDY    50  37  61 W16       29.97R
LIVERMORE      CLEAR     49  37  63 W14       29.93R
HAYWARD        PTCLDY    51  35  54 W10       29.95S
REDWOOD CITY   N/A       MM  MM  MM MISG
MOFFETT ARPT   CLEAR     51  37  58 W6        29.96R
SAN JOSE ARPT  PTCLDY    51  37  58 NW12      29.95R
$$
CAZ034-037-514>518-280300-
CENTRAL COAST

CITY           SKY/WX    TMP DP  RH WIND       PRES   REMARKS
WATSONVILLE    CLEAR     53  31  42 N6        29.94R
SALINAS        CLEAR     52  40  63 W9        29.94R
MONTEREY       CLEAR     50  40  68 W9        29.96R
SAN LUIS OBISP PTCLDY    52  41  66 NW10G21   29.90R
SANTA MARIA    MOCLDY    50  43  77 NW18      29.89R
$$
CAZ015-016-280300-
NORTHERN SACRAMENTO VALLEY

CITY           SKY/WX    TMP DP  RH WIND       PRES   REMARKS
REDDING        LGT RAIN  49  34  56 NW7       29.90R
RED BLUFF      PTCLDY    48  35  60 S6        29.92S
OROVILLE       CLEAR     51  33  50 CALM      29.94S
$$
CAZ016>018-280300-
SOUTHERN SACRAMENTO VALLEY

CITY           SKY/WX    TMP DP  RH WIND       PRES   REMARKS
AUBURN         PTCLDY    46  32  57 W5        29.92R
BEALE AFB      CLEAR     50  36  58 CALM      29.91S
LINCOLN        FAIR      50  32  50 SW5       29.93R
MARYSVILLE     PTCLDY    50  34  54 SW7       29.94R
SAC INTL ARPT  PTCLDY    51  33  50 CALM      29.93S
MATHER AIRPORT PTCLDY    50  30  46 NW7       29.94R
DOWNTOWN SAC   N/A       53  MM  MM MISG
SAC EXEC ARPT  PTCLDY    50  34  54 W5        29.94R
VACAVILLE      PTCLDY    52  36  54 SW7       29.95R
TRAVIS AFB     PTCLDY    50  38  62 SW8       29.92S
$$
CAZ019>021-280300-
SAN JOAQUIN VALLEY

CITY           SKY/WX    TMP DP  RH WIND       PRES   REMARKS
STOCKTON       CLEAR     51  32  48 NW7       29.93R
MODESTO        CLEAR     51  29  42 NW9       29.92R
MERCED         CLEAR     49  33  54 NW9       29.91R
LEMOORE        MOCLDY    50  40  68 NW8       29.90S
FRESNO         PTCLDY    53  36  52 N9        29.90R
HANFORD        PTCLDY    53  39  59 NW10      29.90R
PORTERVILLE    CLEAR     54  42  64 CALM      29.89S
BAKERSFIELD    PTCLDY    52  41  66 S7        29.88S
$$
CAZ011-012-071-280300-
NORTHERN MOUNTAINS

CITY           SKY/WX    TMP DP  RH WIND       PRES   REMARKS
YREKA          CLOUDY    36  30  79 NW12      29.87R WCI  28
MOUNT SHASTA   CLOUDY    34  27  75 E3        29.83R
ALTURAS        CLOUDY    30  20  66 SW8       29.79R WCI  22
$$
CAZ011-012-071-280300-
SIERRA NEVADA MTNS

CITY           SKY/WX    TMP DP  RH WIND       PRES   REMARKS
BLUE CANYON    MOCLDY    27  23  85 S6        29.84S WCI  20
TRUCKEE        PTCLDY    27  14  59 W3        29.81R
TAHOE VLY ARPT PTCLDY    25  15  66 SW3       29.80R
MAMMOTH LAKES  FAIR      25  15  68 W3        29.75R
$$




USA.gov is the U.S. government's official web portal to all federal, state and local government web resources and services.